QPF
0.00 0.00 0.00 0.00 0.00 0.00 0.00 0.00 0.00 0.00 0.00 0.00 0.00 0.00 0.00 0.00 0.00 0.00 0.00 0.00 0.00 0.00 0.00 0.00 0.00 0.00 0.00 0.00 0.00 0.00 0.00 0.00 0.00 0.00 0.00 0.00 0.00 0.00 0.00 0.00 0.00 0.00 0.00 0.00
0.00 0.00 0.00 0.00 0.00 0.00 0.00 0.00 0.00 0.00 0.00 0.00 0.00 0.00 0.00 0.00 0.00 0.00 0.00 0.00 0.00 0.00 0.00 0.00 0.00 0.00 0.00 0.00 0.00 0.00 0.00 0.00 0.00 0.00 0.00 0.00 0.00 0.00 0.00 0.00 0.00 0.00 0.00 0.00
0.00 0.00 0.00 0.00 0.00 0.00 0.00 0.00 0.00 0.00 0.00 0.00 0.00 0.00 0.00 0.00 0.00 0.00 0.00 0.00 0.00 0.00 0.00 0.00 0.00 0.00 0.00 0.00 0.00 0.00 0.00 0.00 0.00 0.00 0.00 0.00 0.00 0.00 0.00 0.00 0.00 0.00 0.00 0.00
0.00 0.00 0.00 0.00 0.00 0.00 0.00 0.00 0.00 0.00 0.00 0.00 0.00 0.00 0.00 0.00 0.00 0.00 0.00 0.00 0.00 0.00 0.00 0.00 0.00 0.00 0.00 0.00 0.00 0.00 0.00 0.00 0.00 0.00 0.00 0.00 0.00 0.00 0.00 0.00 0.00 0.00 0.00 0.00
0.00 0.00 0.00 0.00 0.00 0.00 0.00 0.00 0.00 0.00 0.00 0.00 0.00 0.00 0.00 0.00 0.00 0.00 0.00 0.00 0.00 0.00 0.00 0.00 0.00 0.00 0.00 0.00 0.00 0.00 0.00 0.00 0.00 0.00 0.00 0.00 0.00 0.00 0.00 0.00 0.00 0.00 0.00 0.00
0.00 0.00 0.00 0.00 0.00 0.00 0.00 0.00 0.00 0.00 0.00 0.00 0.00 0.00 0.00 0.00 0.00 0.00 0.00 0.00 0.00 0.00 0.00 0.00 0.00 0.00 0.00 0.00 0.00 0.00 0.00 0.00 0.00 0.00 0.00 0.00 0.00 0.00 0.00 0.00 0.00 0.00 0.00 0.00
0.00 0.00 0.00 0.00 0.00 0.00 0.00 0.00 0.00 0.00 0.00 0.00 0.00 0.00 0.00 0.00 0.00 0.00 0.00 0.00 0.00 0.00 0.00 0.00 0.00 0.00 0.00 0.00 0.00 0.00 0.00 0.00 0.00 0.00 0.00 0.00 0.00 0.00 0.00 0.00 0.00 0.00 0.00 0.00
0.00 0.00 0.00 0.00 0.00 0.00 0.00 0.00 0.00 0.00 0.00 0.00 0.00 0.00 0.00 0.00 0.00 0.00 0.00 0.00 0.00 0.00 0.00 0.00 0.00 0.00 0.00 0.00 0.00 0.00 0.00 0.00 0.00 0.00 0.00 0.00 0.00 0.00 0.00 0.00 0.00 0.00 0.00 0.00
0.00 0.00 0.00 0.00 0.00 0.00 0.00 0.00 0.00 0.00 0.00 0.00 0.00 0.00 0.00 0.00 0.00 0.00 0.00 0.00 0.00 0.00 0.00 0.00 0.00 0.00 0.00 0.00 0.00 0.00 0.00 0.00 0.00 0.00 0.00 0.00 0.00 0.00 0.00 0.00 0.00 0.00 0.00 0.00
0.00 0.00 0.00 0.00 0.00 0.00 0.00 0.00 0.00 0.00 0.00 0.00 0.00 0.00 0.00 0.00 0.00 0.00 0.00 0.00 0.00 0.00 0.00 0.00 0.00 0.00 0.00 0.00 0.00 0.00 0.00 0.00 0.00 0.00 0.00 0.00 0.00 0.00 0.00 0.00 0.00 0.00 0.00 0.00
0.00 0.00 0.00 0.00 0.00 0.00 0.00 0.00 0.00 0.00 0.00 0.00 0.00 0.00 0.00 0.00 0.00 0.00 0.00 0.00 0.00 0.00 0.00 0.00 0.00 0.00 0.00 0.00 0.00 0.00 0.00 0.00 0.00 0.00 0.00 0.00 0.00 0.00 0.00 0.00 0.00 0.00 0.00 0.00
0.00 0.00 0.00 0.00 0.00 0.00 0.00 0.00 0.00 0.00 0.00 0.00 0.01 0.00 0.00 0.00 0.00 0.00 0.00 0.00 0.00 0.00 0.00 0.00 0.00 0.00 0.00 0.00 0.00 0.00 0.00 0.00 0.00 0.00 0.00 0.00 0.00 0.00 0.00 0.00 0.00 0.00 0.00 0.00
0.00 0.00 0.00 0.00 0.00 0.00 0.00 0.00 0.00 0.00 0.00 0.00 0.01 0.00 0.00 0.00 0.00 0.00 0.00 0.00 0.00 0.00 0.00 0.00 0.00 0.00 0.00 0.00 0.00 0.00 0.00 0.00 0.00 0.00 0.00 0.00 0.00 0.00 0.00 0.00 0.00 0.00 0.00 0.00
0.00 0.00 0.00 0.00 0.01 0.00 0.00 0.00 0.00 0.00 0.00 0.00 0.00 0.00 0.00 0.00 0.00 0.00 0.00 0.00 0.00 0.00 0.00 0.00 0.00 0.00 0.00 0.00 0.00 0.00 0.00 0.00 0.00 0.00 0.00 0.00 0.00 0.00 0.00 0.00 0.00 0.00 0.00 0.00
0.00 0.00 0.00 0.00 0.01 0.00 0.00 0.00 0.00 0.00 0.00 0.00 0.00 0.00 0.00 0.00 0.00 0.00 0.00 0.00 0.00 0.00 0.00 0.00 0.00 0.00 0.00 0.00 0.00 0.00 0.00 0.00 0.00 0.00 0.00 0.00 0.00 0.00 0.00 0.00 0.00 0.00 0.00 0.00
0.00 0.00 0.00 0.00 0.00 0.01 0.01 0.00 0.00 0.00 0.00 0.00 0.00 0.00 0.00 0.00 0.00 0.00 0.00 0.00 0.00 0.00 0.00 0.00 0.00 0.00 0.00 0.00 0.00 0.00 0.00 0.00 0.00 0.00 0.00 0.00 0.00 0.00 0.00 0.00 0.00 0.00 0.00 0.00
0.02 0.01 0.01 0.01 0.00 0.00 0.01 0.00 0.00 0.00 0.00 0.00 0.00 0.00 0.00 0.00 0.00 0.00 0.00 0.00 0.00 0.00 0.00 0.00 0.00 0.00 0.00 0.00 0.00 0.00 0.00 0.00 0.00 0.00 0.00 0.00 0.00 0.00 0.00 0.00 0.00 0.00 0.00 0.00
0.03 0.03 0.03 0.02 0.01 0.01 0.00 0.00 0.00 0.00 0.00 0.00 0.00 0.00 0.00 0.00 0.00 0.00 0.00 0.00 0.00 0.00 0.00 0.00 0.00 0.00 0.00 0.00 0.00 0.00 0.00 0.00 0.00 0.00 0.00 0.00 0.00 0.00 0.00 0.00 0.00 0.00 0.00 0.00
0.00 0.01 0.03 0.04 0.02 0.01 0.00 0.00 0.00 0.00 0.00 0.00 0.00 0.00 0.00 0.00 0.00 0.00 0.00 0.00 0.00 0.00 0.00 0.00 0.00 0.00 0.00 0.00 0.00 0.01 0.01 0.00 0.00 0.00 0.00 0.00 0.00 0.00 0.00 0.00 0.00 0.00 0.00 0.00
0.00 0.01 0.02 0.03 0.04 0.01 0.00 0.00 0.00 0.00 0.00 0.00 0.00 0.00 0.00 0.00 0.00 0.00 0.00 0.00 0.00 0.00 0.00 0.00 0.00 0.00 0.00 0.00 0.00 0.00 0.00 0.00 0.00 0.00 0.00 0.00 0.00 0.00 0.00 0.00 0.00 0.00 0.00 0.00
0.02 0.01 0.02 0.01 0.02 0.00 0.00 0.00 0.00 0.00 0.00 0.00 0.00 0.00 0.00 0.00 0.00 0.00 0.00 0.00 0.00 0.00 0.00 0.00 0.00 0.00 0.00 0.00 0.00 0.00 0.00 0.00 0.00 0.00 0.00 0.00 0.00 0.00 0.00 0.00 0.00 0.00 0.00 0.00
0.02 0.02 0.02 0.02 0.03 0.02 0.00 0.00 0.00 0.00 0.00 0.00 0.00 0.00 0.00 0.00 0.00 0.00 0.00 0.00 0.00 0.00 0.00 0.00 0.00 0.00 0.00 0.00 0.00 0.00 0.00 0.00 0.00 0.00 0.00 0.00 0.00 0.00 0.00 0.00 0.00 0.00 0.00 0.00
0.02 0.02 0.03 0.02 0.01 0.00 0.00 0.00 0.00 0.00 0.00 0.00 0.00 0.00 0.00 0.00 0.00 0.00 0.00 0.00 0.00 0.00 0.00 0.00 0.00 0.00 0.00 0.00 0.00 0.00 0.00 0.00 0.00 0.00 0.00 0.00 0.00 0.00 0.00 0.00 0.00 0.00 0.00 0.00
0.01 0.01 0.03 0.01 0.01 0.00 0.00 0.00 0.00 0.00 0.00 0.00 0.00 0.00 0.00 0.00 0.00 0.00 0.00 0.00 0.00 0.00 0.00 0.00 0.00 0.00 0.00 0.00 0.00 0.00 0.00 0.00 0.00 0.00 0.00 0.00 0.00 0.00 0.00 0.00 0.00 0.00 0.00 0.00
0.02 0.02 0.01 0.01 0.00 0.00 0.00 0.00 0.00 0.00 0.00 0.00 0.00 0.00 0.00 0.00 0.00 0.00 0.00 0.00 0.00 0.00 0.00 0.00 0.00 0.00 0.00 0.00 0.00 0.00 0.00 0.00 0.00 0.00 0.00 0.00 0.00 0.00 0.00 0.00 0.00 0.00 0.00 0.00
0.00 0.00 0.01 0.01 0.00 0.01 0.00 0.00 0.00 0.00 0.00 0.00 0.00 0.00 0.00 0.00 0.00 0.00 0.00 0.00 0.00 0.00 0.00 0.00 0.00 0.00 0.00 0.00 0.00 0.00 0.00 0.00 0.00 0.00 0.00 0.00 0.00 0.00 0.00 0.00 0.00 0.00 0.00 0.00
MSLP
1006.10 1006.14 1004.95 1003.92 1003.26 1002.87 1002.26 1001.49 1000.49 999.70 999.16 999.04 998.85 998.78 998.97 998.97 998.72 998.98 999.23 999.47 999.93 1000.27 1000.84 1001.99 1003.67 1005.44 1007.10 1008.73 1010.23 1011.59 1012.68 1013.56 1014.15 1014.58 1014.94 1015.53 1016.11 1016.73 1017.54 1018.06 1018.36 1018.55 1018.70 1018.75
1005.54 1004.40 1004.00 1003.27 1002.33 1001.62 1001.08 1001.10 1000.87 1000.40 1000.03 999.78 999.19 998.56 998.42 998.45 998.47 998.32 998.62 999.17 999.74 1000.19 1000.88 1002.10 1003.78 1005.54 1007.25 1009.00 1010.42 1011.66 1012.76 1013.48 1013.91 1014.20 1014.53 1015.11 1015.87 1016.68 1017.49 1018.13 1018.55 1018.88 1019.10 1019.28
1003.99 1002.97 1002.97 1002.61 1002.06 1001.62 1001.09 1001.05 1001.26 1000.91 1000.48 999.92 999.60 998.05 998.00 997.83 997.67 997.60 997.58 997.92 998.80 999.72 1000.64 1002.24 1004.08 1005.94 1007.66 1009.32 1010.58 1011.79 1012.80 1013.50 1013.60 1013.57 1013.99 1014.77 1015.81 1016.81 1017.75 1018.46 1018.86 1019.26 1019.44 1019.52
1003.15 1003.01 1002.36 1001.77 1001.20 1001.54 1001.16 1001.66 1001.12 1001.03 1000.86 999.89 999.98 997.24 997.25 996.92 996.33 995.99 996.41 997.05 997.66 998.82 999.96 1002.12 1003.98 1006.03 1007.73 1009.41 1010.63 1011.49 1012.45 1013.36 1013.50 1013.58 1014.19 1015.03 1015.76 1016.41 1016.99 1017.59 1018.72 1019.36 1019.56 1019.90
1002.61 1002.86 1002.01 1001.63 1001.37 1001.35 1000.93 1001.85 1001.92 1001.69 1001.56 1001.18 999.95 999.65 994.79 996.82 996.14 995.43 995.17 995.92 996.99 998.16 999.69 1001.55 1003.83 1005.71 1007.61 1009.20 1010.75 1011.68 1012.20 1012.80 1013.19 1013.87 1014.45 1015.11 1015.40 1015.84 1016.58 1017.61 1018.77 1019.50 1019.78 1020.08
1003.12 1002.95 1002.05 1001.42 1001.55 1001.77 1001.81 1002.11 1002.40 1002.49 1002.92 1001.42 1000.22 1000.35 994.23 997.26 996.52 995.93 995.21 995.98 997.33 998.61 999.73 1001.51 1003.37 1005.37 1007.22 1008.69 1010.22 1011.47 1012.11 1012.56 1013.17 1014.00 1014.35 1014.88 1015.21 1015.82 1016.76 1017.69 1018.72 1019.27 1019.91 1020.55
1003.08 1002.47 1002.04 1001.71 1001.71 1002.06 1002.35 1002.57 1002.83 1002.67 1002.73 1000.45 1000.24 999.68 997.82 997.93 998.27 998.23 998.30 998.82 999.47 1000.05 1000.87 1002.31 1003.98 1005.82 1007.34 1008.70 1009.82 1011.02 1011.90 1012.50 1013.14 1013.97 1014.37 1014.68 1015.04 1015.65 1016.57 1017.57 1018.30 1019.25 1020.06 1020.83
1001.48 1000.80 1000.62 1000.62 1000.77 1001.48 1001.93 1002.83 1003.00 1002.50 1002.10 1000.98 1000.08 999.36 999.89 999.89 1000.44 1000.90 1001.12 1001.28 1001.65 1002.22 1002.70 1003.78 1004.84 1006.24 1007.62 1009.05 1010.15 1011.21 1012.10 1012.87 1013.49 1014.21 1014.80 1015.14 1015.37 1015.98 1016.73 1017.54 1018.24 1019.16 1020.11 1020.84
1001.50 1000.50 1000.87 1000.87 1000.23 1001.19 1002.14 1002.44 1003.04 1003.13 1003.15 1003.29 1001.68 1000.79 1001.38 1001.52 1001.91 1002.63 1003.17 1003.57 1003.99 1004.49 1004.77 1004.67 1005.44 1006.69 1007.98 1009.33 1010.52 1011.66 1012.50 1013.33 1013.91 1014.69 1015.35 1015.82 1016.26 1016.88 1017.59 1018.24 1018.91 1019.55 1020.40 1021.23
1002.52 1002.03 1001.64 1001.62 1002.15 1002.30 1002.55 1003.06 1003.46 1004.13 1005.06 1003.96 1002.18 1001.81 1002.25 1002.68 1002.87 1003.64 1004.55 1005.17 1005.64 1005.94 1006.16 1006.30 1006.65 1007.06 1008.18 1009.42 1010.71 1011.85 1012.80 1013.42 1014.22 1015.02 1015.86 1016.47 1017.20 1017.65 1018.30 1018.90 1019.53 1020.10 1020.54 1020.89
1003.88 1003.68 1002.80 1002.53 1002.88 1003.30 1003.36 1003.99 1004.45 1004.82 1006.05 1005.41 1004.39 1003.63 1004.12 1004.42 1004.75 1005.31 1005.63 1005.92 1006.13 1006.40 1006.77 1007.18 1007.64 1008.20 1008.90 1009.63 1010.76 1012.07 1013.03 1013.85 1014.89 1015.74 1016.42 1017.37 1018.10 1018.53 1018.94 1019.28 1019.77 1020.43 1020.60 1021.22
1005.78 1005.19 1004.39 1004.07 1003.80 1004.34 1004.90 1004.93 1005.13 1005.74 1006.03 1006.02 1006.23 1005.33 1005.22 1005.52 1005.79 1006.37 1006.89 1007.01 1007.12 1007.03 1007.17 1007.51 1007.70 1008.30 1009.20 1010.10 1011.29 1012.37 1013.33 1014.39 1015.33 1016.18 1017.08 1018.11 1018.77 1019.35 1019.50 1019.91 1020.13 1020.53 1021.12 1021.37
1006.39 1006.31 1006.22 1005.57 1005.65 1005.33 1006.88 1007.63 1007.64 1007.78 1007.20 1006.88 1006.95 1006.10 1006.03 1006.58 1006.74 1006.94 1007.41 1007.33 1007.26 1007.25 1007.30 1007.54 1007.90 1008.33 1009.25 1010.43 1011.60 1012.71 1013.69 1014.70 1015.74 1016.50 1017.36 1018.44 1019.02 1019.01 1019.72 1020.19 1020.55 1021.17 1021.20 1021.46
1007.75 1007.30 1007.06 1006.87 1007.62 1008.51 1009.09 1009.66 1009.62 1009.67 1009.60 1008.64 1007.30 1006.75 1007.14 1007.42 1007.42 1007.39 1007.55 1007.48 1007.02 1006.90 1006.97 1007.28 1007.84 1008.48 1009.05 1010.20 1011.24 1012.46 1013.92 1014.98 1015.98 1016.91 1017.52 1018.07 1018.53 1019.14 1019.70 1020.58 1020.28 1021.09 1021.22 1021.46
1007.81 1007.40 1007.38 1007.37 1007.72 1008.73 1008.96 1009.21 1009.33 1009.61 1009.35 1009.25 1007.59 1007.45 1006.32 1006.95 1006.55 1006.25 1006.56 1006.41 1006.53 1006.67 1007.06 1007.27 1007.74 1008.56 1009.45 1010.35 1011.38 1012.50 1013.74 1014.85 1015.84 1016.88 1017.48 1018.31 1019.02 1019.37 1019.91 1020.04 1020.22 1020.95 1021.35 1021.88
1007.79 1007.44 1007.54 1007.35 1007.50 1007.65 1008.34 1008.19 1007.58 1007.92 1007.63 1007.62 1007.21 1006.62 1005.67 1005.89 1005.70 1005.36 1005.47 1005.66 1005.83 1006.20 1006.54 1007.05 1007.57 1007.89 1008.68 1009.77 1010.81 1011.87 1013.12 1013.92 1015.22 1016.33 1017.31 1018.10 1019.02 1019.79 1019.69 1020.30 1020.87 1020.91 1021.45 1021.88
1007.72 1007.81 1007.66 1007.05 1007.27 1006.99 1006.87 1005.85 1006.05 1005.75 1005.62 1005.50 1005.06 1004.64 1004.59 1004.44 1004.34 1004.30 1004.93 1005.38 1005.66 1005.90 1006.47 1007.17 1007.80 1008.27 1008.75 1009.18 1009.78 1010.70 1012.37 1013.60 1014.64 1015.89 1017.32 1018.63 1019.42 1020.14 1020.23 1020.55 1021.02 1021.29 1021.83 1022.55
1007.02 1007.49 1007.73 1007.23 1007.12 1006.09 1004.60 1004.50 1004.31 1004.28 1003.70 1003.58 1003.39 1003.18 1002.99 1003.04 1003.41 1003.86 1004.41 1005.18 1006.03 1007.30 1008.05 1008.57 1008.93 1009.27 1009.16 1009.41 1009.46 1010.68 1011.88 1013.11 1014.43 1016.06 1017.40 1018.15 1019.11 1019.93 1020.53 1020.90 1021.46 1021.97 1022.39 1023.35
1006.54 1006.76 1006.87 1006.90 1006.10 1005.09 1004.11 1002.75 1002.65 1002.58 1002.81 1002.76 1002.66 1002.67 1002.50 1002.84 1003.33 1004.07 1005.07 1006.20 1007.38 1008.47 1009.59 1010.01 1010.27 1010.28 1010.03 1010.17 1010.51 1011.22 1012.40 1013.69 1014.96 1016.23 1016.98 1017.84 1018.51 1019.66 1020.41 1021.00 1021.66 1022.33 1022.82 1023.64
1005.91 1005.84 1006.48 1006.76 1005.44 1004.07 1002.37 1002.07 1001.96 1001.84 1003.10 1002.45 1002.40 1002.41 1002.89 1003.51 1004.26 1005.53 1006.38 1007.22 1008.45 1009.38 1010.11 1010.77 1011.18 1010.98 1010.83 1011.13 1011.63 1012.03 1012.88 1013.73 1014.89 1015.88 1016.81 1017.80 1018.67 1019.44 1020.26 1020.93 1021.71 1022.50 1023.08 1023.56
1004.88 1005.23 1005.20 1005.46 1004.66 1003.24 1001.67 1001.04 1001.03 1001.73 1001.20 1001.10 1001.35 1001.97 1002.74 1004.01 1005.39 1006.31 1007.22 1008.07 1008.77 1009.71 1010.12 1010.49 1011.33 1011.53 1011.72 1011.73 1012.11 1013.02 1013.65 1014.25 1014.90 1015.85 1016.99 1018.01 1018.73 1019.56 1020.34 1021.09 1021.78 1022.46 1022.97 1023.57
1004.67 1004.77 1004.30 1004.17 1003.90 1002.68 1000.63 1001.35 1001.66 1001.72 1001.14 1001.27 1001.59 1002.39 1003.44 1005.23 1006.70 1007.74 1008.28 1008.69 1009.00 1009.14 1009.40 1010.03 1010.62 1011.61 1012.06 1012.37 1012.77 1013.64 1014.25 1014.84 1015.64 1016.39 1017.03 1017.85 1018.84 1019.62 1020.33 1020.96 1021.75 1022.38 1022.91 1023.31
1004.70 1004.07 1004.13 1003.42 1002.11 1001.39 1000.67 1000.50 1000.06 1000.00 1000.09 1000.62 1001.25 1002.33 1003.54 1005.35 1006.87 1007.91 1008.46 1008.68 1008.91 1008.87 1008.82 1009.11 1009.71 1011.06 1012.18 1012.65 1012.95 1013.83 1014.64 1015.14 1015.83 1016.80 1017.44 1018.08 1018.80 1019.61 1020.34 1020.95 1021.54 1022.17 1022.62 1023.11
1004.03 1003.50 1003.47 1003.85 1002.93 1002.16 1001.68 1000.81 999.78 999.19 999.84 1000.32 1000.92 1001.98 1003.26 1005.39 1007.00 1007.67 1008.49 1008.77 1008.67 1008.44 1008.35 1008.53 1009.33 1010.58 1011.82 1012.63 1013.26 1013.75 1014.59 1015.28 1015.96 1016.61 1017.47 1018.25 1018.60 1019.62 1020.42 1020.87 1021.53 1021.85 1022.17 1022.54
1006.76 1006.36 1004.72 1003.29 1002.69 1002.98 1002.25 1001.28 1001.32 999.92 1000.29 1000.20 1000.71 1001.58 1002.69 1004.42 1005.97 1006.72 1007.52 1007.85 1007.81 1007.56 1007.66 1008.13 1008.84 1009.79 1011.14 1012.21 1013.04 1013.66 1014.66 1015.27 1015.84 1016.55 1017.39 1018.05 1018.62 1019.44 1020.17 1020.83 1021.32 1021.61 1021.75 1021.95
1006.22 1005.91 1005.49 1003.58 1003.09 1003.69 1001.53 1000.06 999.80 999.94 999.87 1000.04 1000.69 1001.38 1002.29 1003.35 1004.56 1005.38 1005.96 1006.73 1007.02 1007.13 1007.22 1007.76 1008.47 1009.30 1010.55 1011.96 1013.03 1013.74 1014.17 1015.20 1015.62 1016.30 1017.10 1017.69 1018.40 1019.22 1019.95 1020.60 1021.33 1021.41 1021.83 1022.12
Thickness
5684 5669 5674 5694 5700 5702 5703 5705 5708 5724 5739 5730 5725 5721 5728 5738 5742 5737 5737 5741 5742 5741 5745 5741 5731 5721 5709 5696 5686 5676 5666 5659 5654 5649 5646 5640 5634 5628 5620 5614 5609 5607 5604 5600
5670 5668 5691 5701 5706 5708 5707 5698 5697 5713 5725 5721 5719 5717 5730 5732 5733 5738 5735 5736 5734 5737 5736 5726 5718 5711 5697 5684 5675 5666 5658 5652 5647 5643 5639 5634 5626 5618 5609 5602 5597 5592 5588 5585
5669 5685 5694 5694 5692 5692 5697 5689 5687 5690 5707 5717 5710 5712 5718 5733 5737 5742 5744 5742 5738 5736 5729 5716 5705 5697 5684 5671 5663 5655 5648 5641 5639 5639 5635 5627 5615 5606 5596 5588 5585 5577 5574 5571
5674 5684 5685 5687 5690 5690 5676 5695 5695 5690 5685 5679 5708 5689 5715 5729 5736 5744 5744 5742 5737 5734 5730 5711 5698 5687 5674 5661 5654 5648 5641 5631 5628 5627 5621 5611 5604 5597 5591 5586 5572 5565 5560 5554
5666 5665 5672 5671 5678 5687 5682 5687 5679 5680 5669 5673 5684 5670 5731 5730 5724 5737 5748 5742 5736 5732 5721 5701 5693 5681 5668 5654 5643 5635 5630 5624 5619 5612 5605 5597 5594 5589 5582 5572 5559 5550 5545 5540
5655 5671 5670 5673 5678 5676 5682 5670 5668 5667 5651 5644 5677 5667 5727 5706 5717 5728 5744 5738 5728 5717 5710 5691 5687 5676 5662 5646 5635 5624 5617 5614 5608 5597 5593 5585 5580 5575 5566 5555 5545 5539 5531 5523
5639 5646 5662 5667 5654 5661 5658 5648 5629 5626 5620 5645 5683 5673 5694 5697 5700 5703 5706 5701 5698 5694 5688 5673 5667 5658 5648 5637 5627 5616 5606 5599 5595 5585 5579 5573 5569 5564 5553 5543 5536 5525 5516 5508
5634 5635 5655 5669 5658 5645 5645 5636 5623 5608 5623 5652 5677 5660 5667 5668 5672 5673 5674 5674 5674 5668 5665 5650 5644 5638 5630 5619 5611 5600 5590 5582 5577 5568 5561 5556 5553 5546 5538 5529 5521 5513 5503 5495
5624 5635 5650 5651 5664 5653 5636 5622 5642 5622 5631 5609 5645 5661 5644 5654 5649 5644 5641 5639 5637 5640 5639 5634 5625 5622 5612 5601 5591 5581 5573 5565 5560 5552 5544 5539 5532 5525 5516 5508 5502 5496 5487 5480
5613 5603 5630 5632 5634 5632 5626 5638 5609 5599 5573 5594 5635 5642 5623 5624 5629 5628 5623 5618 5616 5615 5615 5614 5608 5601 5595 5587 5577 5568 5557 5551 5544 5535 5527 5520 5510 5505 5497 5492 5484 5479 5475 5471
5596 5594 5610 5615 5609 5602 5612 5602 5604 5605 5576 5574 5587 5609 5607 5602 5602 5599 5602 5604 5602 5600 5599 5595 5587 5582 5576 5571 5563 5553 5542 5535 5524 5515 5507 5498 5491 5485 5482 5478 5471 5465 5463 5456
5569 5572 5575 5587 5607 5601 5594 5593 5596 5574 5576 5583 5572 5580 5590 5589 5587 5580 5579 5581 5580 5581 5580 5579 5575 5568 5561 5554 5545 5538 5528 5517 5509 5499 5491 5481 5475 5469 5466 5461 5457 5452 5444 5440
5557 5548 5547 5560 5574 5583 5556 5556 5558 5557 5569 5564 5558 5571 5574 5570 5565 5566 5564 5564 5564 5563 5562 5564 5560 5554 5547 5538 5530 5522 5512 5504 5494 5486 5479 5467 5461 5461 5454 5447 5441 5433 5431 5429
5536 5536 5536 5536 5529 5520 5517 5521 5528 5523 5518 5532 5546 5555 5551 5545 5545 5549 5547 5546 5552 5555 5553 5552 5548 5539 5534 5527 5520 5509 5494 5487 5479 5471 5466 5462 5456 5449 5443 5435 5433 5425 5424 5420
5526 5524 5533 5535 5536 5518 5519 5518 5520 5514 5518 5505 5539 5529 5555 5539 5542 5550 5545 5545 5543 5543 5539 5537 5534 5529 5519 5511 5503 5490 5481 5473 5467 5460 5457 5448 5440 5435 5432 5430 5425 5417 5412 5405
5517 5512 5520 5520 5530 5526 5512 5524 5533 5526 5531 5520 5523 5526 5555 5541 5541 5545 5542 5539 5537 5536 5533 5530 5526 5523 5515 5506 5497 5488 5477 5470 5460 5454 5445 5436 5427 5422 5424 5415 5408 5405 5399 5394
5500 5503 5507 5506 5520 5519 5508 5534 5532 5533 5534 5530 5518 5538 5548 5541 5538 5536 5533 5529 5531 5531 5524 5518 5511 5506 5495 5493 5491 5481 5469 5458 5450 5441 5429 5417 5412 5407 5405 5402 5396 5391 5386 5377
5502 5498 5498 5498 5503 5485 5529 5539 5533 5526 5535 5538 5536 5539 5542 5545 5539 5533 5527 5525 5518 5508 5498 5494 5488 5484 5484 5478 5480 5471 5459 5450 5437 5422 5412 5408 5400 5393 5389 5385 5382 5372 5371 5360
5502 5499 5493 5488 5494 5509 5519 5543 5535 5526 5525 5537 5533 5534 5537 5539 5533 5525 5509 5507 5494 5482 5457 5461 5462 5462 5465 5463 5457 5451 5442 5430 5418 5408 5403 5398 5393 5383 5377 5372 5365 5359 5356 5350
5494 5496 5487 5473 5480 5489 5526 5540 5540 5534 5485 5525 5524 5526 5524 5522 5504 5498 5494 5488 5475 5463 5450 5440 5438 5447 5451 5446 5440 5433 5424 5417 5408 5401 5394 5386 5379 5374 5367 5362 5355 5349 5344 5341
5483 5482 5474 5475 5477 5498 5532 5540 5531 5501 5517 5529 5529 5525 5519 5508 5499 5489 5481 5468 5464 5449 5447 5450 5433 5430 5431 5434 5429 5417 5409 5405 5398 5390 5381 5373 5368 5362 5356 5350 5345 5340 5336 5331
5478 5465 5476 5483 5471 5472 5536 5517 5490 5507 5513 5515 5517 5512 5506 5484 5459 5452 5451 5450 5456 5456 5455 5448 5443 5425 5419 5417 5413 5403 5397 5388 5381 5375 5370 5364 5357 5351 5346 5342 5336 5332 5327 5324
5449 5471 5465 5482 5491 5508 5517 5512 5519 5515 5513 5512 5509 5504 5498 5476 5450 5447 5441 5441 5444 5449 5452 5451 5446 5424 5411 5406 5401 5391 5382 5375 5368 5362 5357 5353 5348 5342 5337 5333 5328 5323 5319 5316
5461 5474 5467 5461 5473 5475 5486 5497 5508 5512 5508 5507 5504 5498 5490 5447 5441 5440 5436 5435 5437 5443 5445 5444 5436 5419 5406 5398 5390 5382 5372 5363 5357 5353 5348 5342 5339 5332 5327 5325 5319 5316 5313 5310
5401 5403 5425 5447 5469 5457 5470 5468 5467 5496 5495 5499 5497 5491 5483 5469 5452 5445 5440 5441 5440 5443 5442 5436 5428 5417 5402 5390 5381 5370 5361 5354 5350 5345 5339 5335 5331 5325 5319 5315 5310 5308 5307 5306
5404 5404 5398 5428 5450 5435 5471 5487 5487 5486 5490 5492 5487 5481 5476 5470 5460 5456 5450 5440 5438 5435 5434 5427 5418 5410 5396 5380 5368 5360 5355 5346 5343 5340 5334 5330 5325 5318 5312 5307 5300 5300 5297 5294